Simultaneous Nadir Overpasses (SNOs) Predictions

Prediction of SNOs between LANDSAT-8 and NOAA-19 Satellite Orbit:

Table of predicted SNOs for the next 14.0 days since TLE Epoch: 5/7/2018
Index Date (LANDSAT-8) Time (LANDSAT-8) Lat,Lon (LANDSAT-8) SZA (LANDSAT-8 ) Date (NOAA-19) Time (NOAA-19) Lat,Lon (NOAA-19) SZA (NOAA-19 ) Distance(km) Time Diff (sec)
1 05/07/2018 21:07:58 -77.55, 56.23 119.10 05/07/2018 21:07:06 -77.57, 56.13 119.10 3.25 52
2 05/07/2018 21:57:25 77.49,-136.35 60.83 05/07/2018 21:58:06 77.52,-136.40 60.87 3.63 41
3 05/10/2018 02:41:40 77.54, 152.78 60.30 05/10/2018 02:40:43 77.57, 152.78 60.32 3.32 57
4 05/10/2018 03:31:08 -77.51, -39.72 119.75 05/10/2018 03:31:42 -77.50, -39.62 119.74 2.69 34
5 05/12/2018 08:15:23 -77.56,-110.60 120.26 05/12/2018 08:14:20 -77.57,-110.52 120.26 2.12 63
6 05/12/2018 09:04:49 77.54, 56.99 59.72 05/12/2018 09:05:19 77.54, 56.89 59.72 2.55 30
7 05/14/2018 13:49:04 77.59, -13.90 59.24 05/14/2018 13:47:56 77.59, -13.95 59.22 1.27 68
8 05/14/2018 14:38:32 -77.56, 153.62 120.81 05/14/2018 14:38:57 -77.55, 153.49 120.82 3.21 25
9 05/16/2018 19:22:47 -77.60, 82.72 121.27 05/16/2018 19:21:34 -77.58, 82.75 121.31 2.35 73
10 05/16/2018 20:12:14 77.54,-109.90 58.65 05/16/2018 20:12:32 77.56,-109.87 58.68 2.18 18
11 05/19/2018 00:56:24 77.80,-179.85 58.48 05/19/2018 00:55:15 77.85, 177.99 58.39 50.87 69
12 05/19/2018 01:45:57 -77.55, -13.27 121.83 05/19/2018 01:46:11 -77.57, -13.28 121.81 1.90 14




NCC Satellite Simultaneous Nadir Overpasses (SNOs) Prediction Service
